Location: Isola Pescaroli
(45.0500°N, 10.1667°E)
Time: 01:32:18
(UTC+00:00)

ATLAS CENTAUR R/B - Pass Details

Date: 03 March 2021
Orbit: 475 x 670 km, 64.7° (Epoch: 30 March)

Event Time Altitude Azimuth Distance (km) Brightness Sun altitude
Rises 18:18:10 0° 207° (SSW) 2,523 5.0 -12.9°
Reaches altitude 10° 18:20:18 10° 204° (SSW) 1,640 4.0 -13.3°
Maximum altitude 18:23:54 65° 123° (ESE) 527 0.9 -13.9°
Enters shadow 18:27:02 13° 42° (NE) 1,455 3.1 -14.5°
